Location: Unspecified
(0.0000°N, 0.0000°E)
Time: 07:29:30
(UTC+00:00)

LAPAN A2 - Visible Passes

Search period start: 09 June 2023 00:00
Search period end: 19 June 2023 00:00
Orbit: 629 x 647 km, 6.0° (Epoch: 08 June)

Date Brightness Start Highest point End Pass type
(mag) Time Alt. Az. Time Alt. Az. Time Alt. Az.
09 Jun ? 03:46:50 37° E 03:46:50 37° E 03:49:45 10° E visible
09 Jun ? 05:24:44 10° W 05:29:25 72° S 05:34:06 10° ESE visible
09 Jun ? 19:20:15 10° WNW 19:24:53 48° N 19:27:10 26° NE visible
10 Jun ? 04:07:31 72° ESE 04:07:31 72° ESE 04:11:45 10° E visible
10 Jun ? 19:42:21 10° WNW 19:46:55 43° N 19:47:47 39° NNE visible
11 Jun ? 04:28:11 55° WSW 04:29:03 71° S 04:33:44 10° ESE visible
11 Jun ? 18:19:51 10° WNW 18:24:29 48° N 18:29:06 10° ENE visible
11 Jun ? 20:04:27 10° WNW 20:08:22 38° NNW 20:08:22 38° NNW visible
12 Jun ? 04:48:51 29° WSW 04:51:05 59° S 04:55:41 10° ESE visible
12 Jun ? 18:41:57 10° WNW 18:46:31 43° N 18:51:04 10° ENE visible
12 Jun ? 20:26:31 10° WNW 20:28:57 26° NW 20:28:57 26° NW visible
13 Jun ? 03:32:08 18° ESE 03:32:08 18° ESE 03:33:22 10° ESE visible
13 Jun ? 05:09:30 16° WSW 05:13:05 50° S 05:17:38 10° ESE visible
13 Jun ? 19:04:03 10° WNW 19:08:34 40° N 19:12:07 15° ENE visible
13 Jun ? 20:48:32 10° WNW 20:49:29 15° WNW 20:49:29 15° WNW visible
14 Jun ? 03:52:47 31° ESE 03:52:47 31° ESE 03:55:20 10° ESE visible
14 Jun ? 05:30:38 10° WSW 05:35:08 44° S 05:39:36 10° ESE visible
14 Jun ? 19:26:07 10° WNW 19:30:36 40° N 19:32:38 26° NE visible
15 Jun ? 04:13:24 45° SSE 04:13:24 45° SSE 04:17:17 10° ESE visible
15 Jun ? 19:48:08 10° WNW 19:52:39 41° N 19:53:09 39° NNE visible
16 Jun ? 04:34:00 40° SSW 04:34:45 44° S 04:39:14 10° ESE visible
16 Jun ? 18:25:43 10° WNW 18:30:12 40° N 18:34:42 10° ENE visible
16 Jun ? 20:10:07 10° WNW 20:13:39 38° NNW 20:13:39 38° NNW visible
17 Jun ? 04:54:35 25° SW 04:56:48 40° S 05:01:13 10° ESE visible
17 Jun ? 18:47:44 10° WNW 18:52:15 41° N 18:56:46 10° ENE visible
17 Jun ? 20:32:04 10° WNW 20:34:07 24° WNW 20:34:07 24° WNW visible
18 Jun ? 03:37:48 16° ESE 03:37:48 16° ESE 03:38:53 10° ESE visible
18 Jun ? 05:15:10 14° WSW 05:18:50 39° S 05:23:14 10° ESE visible
18 Jun ? 19:09:43 10° WNW 19:14:17 44° N 19:17:13 20° ENE visible
18 Jun ? 20:54:01 10° WNW 20:54:35 13° WNW 20:54:35 13° WNW visible
